Погода в Уткино

Россия / Вологодская область     59°08′32″N   39°24′41″E
темп.,
°C
ветер,
м/с
пор.,
м/с
влажн.,
%
обл.,
%
осадки,
мм/ч
давл.,
гПа
погр.,
м
28 января, чт
чт2800:00−2юз4994100 0.1 1005634
03:00−2юз379499 0.2 1006361
06:00−5юз2597100 0.1 1008119
09:00−7ююз229680 0.1 100924
12:00−5юв129575 0.0 1009133
15:00−4в249687 0.0 1009147
18:00−5в379699 0.0 1008253
21:00−3в489699 0.7 1006322
29 января, пт
пт2900:000вюв4798100 0.6 1005229
03:000ююв4998100 0.8 1004478
06:00−2юв4995100 0.1 1002427
09:00−3юв51096100 1.4 1002495
12:00−2юв51096100 2.0 1000541
15:00−2юв5996100 4.3 999510
18:00−4юв51094100 0.1 998482
21:00−2юв51092100 0.3 998736
30 января, сб
сб3000:00−2юв51096100 0.3 996560
03:00−3юв41094100 0.6 996648
06:00−4юв4995100 0.2 994476
09:00−4юв3896100 0.4 994308
12:00−3ююв489293 0.1 994626
15:00−3ююв488796 0.3 995637
18:00−7ю3109460 0.0 995309
21:00−7ю4109365 0.1 996428
31 января, вс
вс3100:00−7ю41092100 0.0 997475
03:00−9ю499496 0.1 998292
06:00−9ююв389498 0.0 997321
09:00−7юв389499 0.1 996397
12:00−5вюв4894100 0.5 995502
15:00−4в4896100 1.8 991505
18:00−4всв4796100 2.3 989331
21:00−2св2398100 4.1 987100
1 февраля, пн
пн100:00−5сз4796100 2.1 987223
03:00−6зсз61194100 3.5 990518
06:00−7з61291100 0.5 993534
09:00−11з5119498 0.5 997316
12:00−8зюз5119297 0.1 1001468
15:00−7зюз5119198 0.1 1005550
18:00−7юз4993100 0.1 1007486
21:00−8юз3894100 0.1 1009245